Vorticity
22 7 9 9 12 16 20 19 27 -3 -3 -6 -12 2 4 4 4 5 6 7 5 7 8 9 21 12 2 7 3 1 6 3 0 0 1 5 1 -1 5 4 -2 8 -1
17 13 12 7 11 3 -1 4 8 -1 -5 0 5 5 4 4 4 4 7 10 12 16 14 3 2 6 3 -1 3 -1 -5 -1 2 0 6 -9 12 3 6 -7 15 -2 9
4 21 17 15 5 5 3 1 -2 6 8 6 5 5 4 6 4 7 8 13 6 0 2 2 -2 -3 -1 -10 12 4 7 11 5 4 3 4 6 0 9 3 -2 20 13
6 6 18 14 8 9 5 8 5 4 7 6 6 8 6 7 4 5 5 7 8 8 6 2 3 13 1 17 4 4 6 4 12 -2 0 5 10 8 4 16 23 0 0
3 3 6 16 14 9 6 8 8 6 6 7 3 4 9 7 5 10 8 4 13 8 14 9 9 9 2 2 -3 9 10 14 5 -1 1 5 -11 -4 7 12 -13 9 20
6 2 3 4 2 12 17 15 11 14 6 14 -6 9 7 8 3 8 -1 14 8 4 14 3 -6 9 5 -22 11 5 1 11 13 34 -8 -3 -5 1 21 20 14 -1 5
7 9 5 5 4 6 8 14 13 12 13 6 14 4 6 10 34 -1 0 13 4 7 -2 5 1 -8 3 -8 12 24 13 -6 -5 -22 -7 11 26 12 6 9 13 11 9
6 9 9 4 4 10 8 9 6 7 8 9 14 8 11 9 7 9 0 8 15 7 9 -6 2 12 6 19 8 4 -8 1 12 33 25 9 8 8 8 8 8 7 9
11 10 10 9 6 5 6 7 5 5 2 11 5 12 11 9 5 1 0 12 10 18 5 -1 -6 8 4 -15 2 3 36 21 11 8 8 8 9 9 10 9 8 10 9
18 17 17 12 13 12 11 7 4 2 1 1 7 -14 13 12 4 4 2 7 0 7 5 -3 4 20 22 36 23 11 8 7 8 9 10 10 9 10 10 11 12 11 13
6 8 10 10 8 8 14 12 0 10 0 1 10 7 6 2 4 8 5 3 3 15 26 30 27 18 11 7 6 6 7 9 9 9 10 12 13 12 11 12 11 9 9
9 10 11 12 11 9 7 9 6 6 5 5 1 2 8 13 17 21 21 21 20 19 16 12 9 6 6 6 8 9 9 11 13 12 12 12 13 11 9 9 9 8 9
10 17 19 17 15 17 16 13 14 15 14 14 14 13 13 13 13 15 16 16 15 12 8 7 7 9 11 12 13 15 15 13 12 13 11 9 8 8 8 8 9 9 12
9 8 7 6 7 6 6 5 6 9 11 12 13 14 14 16 16 15 13 9 8 8 10 11 12 15 17 14 11 7 10 11 8 8 7 7 7 9 10 11 12 12 13
10 10 11 11 12 11 12 12 12 11 12 13 15 15 13 11 9 9 9 10 11 10 12 17 14 6 11 16 12 9 10 10 8 8 8 9 9 10 13 13 13 12 11
15 14 12 12 12 13 14 14 14 15 13 12 10 9 10 10 10 10 8 6 5 7 7 20 24 13 9 8 7 7 7 7 8 8 10 12 12 11 11 10 10 10 11
15 17 16 15 16 16 15 14 13 11 10 11 12 13 17 21 24 26 25 24 28 23 13 10 9 6 5 5 6 7 10 11 12 11 10 9 9 9 10 10 11 12 13
9 12 12 11 13 13 13 13 14 13 14 14 14 15 17 18 18 24 20 13 12 3 4 3 3 4 6 8 10 10 9 9 8 8 8 8 8 10 10 10 9 10 10
6 -1 4 13 12 11 13 13 12 12 12 13 17 17 16 13 10 9 7 6 5 4 4 4 5 5 8 9 8 6 6 7 7 7 9 10 10 9 9 9 9 10 11
20 11 7 15 25 19 17 15 15 13 9 10 13 11 10 10 8 6 5 5 4 5 1 3 8 8 7 6 4 5 7 9 10 10 9 9 9 9 9 9 11 12 13
9 11 12 23 17 7 13 19 11 7 7 8 9 11 11 8 7 8 6 -1 -3 11 6 6 7 7 6 5 5 6 9 10 9 9 10 10 10 11 11 13 13 14 13
15 15 13 7 5 10 13 15 15 13 13 11 8 5 3 0 0 5 12 9 5 6 7 7 6 5 5 6 6 8 9 9 9 10 10 11 13 14 13 13 13 13 12
12 12 15 18 18 17 15 10 1 2 5 6 5 8 11 12 8 6 6 7 7 6 6 5 5 6 6 7 8 9 9 9 11 11 12 14 14 14 13 12 14 13 13
16 15 14 15 14 10 10 7 3 9 12 12 10 7 8 7 7 6 6 7 7 7 7 7 7 8 9 9 9 9 10 12 13 15 15 15 15 14 14 14 14 15 16
14 15 12 12 11 4 2 3 6 9 12 11 8 7 6 6 6 6 6 6 6 7 7 8 8 9 9 9 9 11 14 15 17 16 15 14 14 14 14 14 14 14 13
11 14 10 4 3 1 4 9 9 7 5 4 3 2 2 4 6 8 9 8 8 9 10 11 12 12 13 14 16 18 18 16 16 16 15 15 15 15 14 12 12 11 11
Height
3083 3088 3091 3096 3099 3100 3106 3109 3112 3118 3121 3126 3129 3131 3133 3134 3135 3137 3138 3139 3140 3141 3141 3141 3142 3141 3141 3141 3139 3138 3137 3135 3130 3133 3135 3135 3133 3131 3130 3127 3125 3122 3121
3079 3081 3085 3089 3093 3096 3101 3106 3109 3114 3117 3121 3122 3124 3126 3128 3129 3130 3132 3132 3133 3134 3135 3134 3135 3134 3135 3134 3134 3133 3132 3130 3126 3122 3125 3126 3124 3123 3120 3117 3116 3112 3109
3074 3076 3079 3082 3086 3091 3095 3100 3103 3107 3110 3113 3116 3118 3120 3122 3123 3124 3125 3125 3126 3127 3128 3127 3129 3128 3127 3128 3127 3126 3125 3122 3120 3115 3113 3113 3113 3112 3110 3108 3105 3102 3099
3067 3070 3073 3076 3080 3084 3088 3092 3096 3099 3103 3105 3108 3110 3112 3113 3114 3116 3117 3118 3119 3120 3121 3120 3119 3119 3119 3116 3119 3118 3116 3114 3111 3109 3105 3101 3099 3097 3095 3093 3090 3089 3085
3060 3064 3067 3071 3074 3077 3080 3084 3087 3091 3094 3097 3099 3101 3103 3105 3106 3107 3109 3110 3110 3110 3109 3110 3110 3109 3109 3110 3110 3108 3106 3104 3100 3097 3095 3091 3089 3086 3083 3080 3077 3073 3072
3052 3056 3060 3064 3067 3069 3072 3075 3078 3082 3085 3087 3090 3091 3093 3095 3096 3098 3099 3098 3098 3098 3100 3098 3100 3100 3100 3099 3097 3097 3096 3094 3089 3083 3082 3083 3078 3075 3071 3069 3065 3059 3055
3041 3045 3050 3054 3058 3061 3064 3067 3070 3073 3075 3077 3079 3081 3082 3084 3085 3086 3087 3088 3089 3090 3089 3087 3088 3089 3090 3088 3087 3086 3084 3081 3080 3077 3072 3070 3067 3063 3060 3057 3054 3049 3045
3034 3038 3041 3045 3050 3053 3056 3059 3062 3064 3066 3069 3070 3070 3072 3073 3076 3078 3078 3079 3080 3079 3078 3075 3077 3078 3077 3077 3075 3074 3072 3069 3068 3065 3061 3058 3055 3052 3049 3045 3041 3038 3034
3023 3027 3031 3036 3040 3043 3047 3050 3052 3054 3057 3058 3060 3061 3061 3062 3064 3066 3067 3067 3068 3068 3067 3067 3066 3066 3064 3064 3063 3062 3059 3056 3054 3052 3050 3047 3044 3041 3038 3034 3030 3026 3022
3013 3017 3021 3025 3029 3032 3035 3038 3040 3043 3045 3047 3049 3050 3050 3052 3053 3054 3056 3057 3057 3057 3056 3055 3054 3053 3053 3051 3050 3050 3048 3046 3044 3041 3039 3036 3033 3030 3026 3023 3019 3015 3010
3003 3006 3011 3014 3018 3021 3024 3028 3030 3032 3034 3036 3037 3037 3037 3041 3042 3043 3044 3044 3043 3043 3043 3042 3041 3041 3040 3040 3039 3038 3037 3035 3033 3030 3028 3026 3022 3019 3015 3011 3007 3004 3000
2993 2997 3000 3004 3008 3011 3014 3017 3019 3021 3023 3024 3025 3026 3027 3028 3029 3030 3030 3030 3030 3030 3030 3030 3030 3030 3029 3028 3026 3025 3024 3023 3021 3019 3017 3014 3012 3009 3006 3002 2998 2994 2990
2985 2988 2992 2995 2998 3001 3004 3006 3009 3010 3011 3013 3014 3014 3015 3016 3017 3018 3018 3018 3019 3019 3019 3019 3019 3018 3018 3016 3015 3014 3013 3011 3010 3008 3006 3004 3002 2999 2995 2993 2988 2984 2980
2977 2980 2983 2985 2988 2991 2993 2995 2997 2999 3000 3001 3002 3003 3004 3004 3006 3007 3008 3008 3008 3009 3009 3009 3008 3008 3007 3006 3005 3004 3003 3002 3001 2998 2996 2994 2991 2988 2984 2980 2976 2972 2968
2968 2970 2973 2976 2978 2980 2982 2984 2986 2988 2989 2991 2992 2993 2994 2995 2996 2997 2998 2998 2999 2999 2999 2999 2998 2998 2997 2996 2995 2995 2995 2993 2990 2987 2984 2982 2979 2976 2973 2968 2963 2959 2954
2959 2961 2963 2965 2968 2970 2972 2974 2976 2978 2979 2980 2982 2983 2984 2985 2986 2987 2987 2988 2988 2988 2989 2989 2988 2989 2990 2990 2989 2987 2985 2983 2980 2977 2974 2971 2968 2965 2961 2957 2952 2948 2944
2951 2953 2954 2956 2958 2960 2962 2964 2966 2968 2969 2971 2972 2973 2975 2977 2977 2978 2978 2979 2979 2980 2980 2983 2984 2984 2983 2982 2980 2979 2977 2974 2970 2967 2964 2960 2956 2952 2949 2945 2941 2937 2933
2945 2946 2947 2949 2950 2952 2955 2956 2958 2959 2961 2963 2964 2965 2967 2968 2969 2971 2971 2973 2975 2976 2977 2977 2977 2976 2975 2973 2971 2969 2967 2964 2961 2957 2953 2949 2945 2941 2938 2933 2929 2924 2920
2937 2939 2941 2942 2943 2946 2948 2949 2951 2953 2954 2956 2957 2958 2961 2963 2964 2965 2967 2968 2970 2970 2970 2970 2969 2967 2966 2964 2962 2959 2957 2954 2950 2947 2943 2939 2934 2930 2926 2921 2916 2912 2907
2928 2930 2932 2934 2936 2938 2940 2942 2943 2945 2947 2949 2952 2954 2956 2957 2959 2960 2961 2962 2963 2963 2962 2961 2959 2958 2956 2954 2951 2949 2946 2943 2940 2936 2932 2927 2923 2919 2914 2909 2905 2901 2898
2923 2924 2926 2928 2929 2932 2934 2935 2937 2940 2942 2944 2946 2949 2950 2951 2953 2954 2955 2955 2955 2954 2953 2952 2950 2948 2946 2943 2941 2938 2935 2932 2928 2924 2919 2915 2910 2907 2902 2898 2894 2891 2887
2915 2918 2920 2922 2924 2926 2928 2930 2932 2935 2937 2939 2941 2943 2944 2944 2945 2946 2946 2946 2946 2945 2944 2942 2940 2938 2935 2932 2929 2926 2923 2919 2915 2910 2906 2902 2899 2895 2891 2887 2884 2880 2876
2909 2911 2913 2916 2918 2921 2924 2926 2929 2931 2932 2933 2935 2936 2937 2937 2938 2938 2938 2938 2937 2935 2934 2932 2929 2926 2923 2920 2916 2912 2909 2905 2901 2897 2893 2890 2887 2883 2879 2876 2873 2870 2866
2904 2906 2908 2911 2914 2916 2919 2921 2923 2925 2925 2926 2927 2928 2929 2930 2930 2930 2929 2928 2926 2924 2922 2919 2916 2913 2910 2906 2902 2898 2895 2892 2888 2885 2881 2878 2876 2872 2869 2866 2863 2860 2857
2900 2902 2904 2906 2909 2912 2914 2915 2916 2918 2918 2919 2920 2921 2921 2921 2920 2919 2917 2916 2914 2911 2908 2905 2902 2899 2896 2893 2890 2887 2884 2880 2877 2874 2871 2868 2865 2862 2859 2856 2853 2849 2846
2895 2898 2900 2902 2905 2906 2907 2908 2909 2910 2911 2911 2911 2911 2911 2909 2908 2906 2905 2903 2901 2898 2896 2893 2890 2887 2884 2882 2879 2876 2873 2870 2867 2864 2859 2857 2854 2852 2848 2845 2843 2840 2837